Location: Hohenfelde
(53.8441°N, 9.6220°E)
Time: 12:33:00
(UTC+00:00)

COSMOS 2406 - Pass Details

Date: 14 July 2020
Orbit: 844 x 863 km, 71.0° (Epoch: 13 August)

Event Time Altitude Azimuth Distance (km) Brightness Sun altitude
Exits shadow 00:49:36 15° 178° (S) 2,168 4.8 -12.5°
Maximum altitude 00:54:06 45° 111° (ESE) 1,160 3.9 -12.2°
Drops below altitude 10° 00:59:33 10° 41° (NE) 2,510 6.9 -12.0°
Sets 01:02:06 0° 35° (NE) 3,449 8.2 -11.8°
